Вернуться в каталог

ATLAS 5 CENTAUR DEB

АктивенHEO
NORAD 43981·DEBRIS·🇺🇸 United States

Запущен Sep 17, 2014 с Cape Canaveral Space Force Station

Loading…

Ближайшие Пролёты (ближайшие 24 часа)

TLE

УстаревающийSource: Space-Track

Эпоха: Aug 28, 2026, 22:53 UTC

1 43981U 14055AL  26240.95376427 -.00000084  00000-0  00000+0 0  9999
2 43981  20.1398 131.6342 5091447 179.9348 180.1533  1.78788093 52088

Отслеживайте ATLAS 5 CENTAUR DEB в реальном времени с AllMySat

Download on the App Store